NOAA 17 DEB

Satellite information

Favourite Embed

Satellite Type and Status

DEBRISIN ORBIT

Key statistics

Satellite NOAA 17 DEB at a glance.

Uptime

8354

Days in orbit

Revolutions

≈ 14.6

Per day

Orbit

SSO

Sun Synchronous Orbit

Inclination

98.5

Latest

Satellite identification and parameters

Extended collection of information and parameters for NOAA 17 DEB.

Object identification

Identified? True

Debris? True

Object name: NOAA 17 DEB

International designator: 2002-032BN

Object number (NORAD): 48729

Object ID (CCSDS): 48729

Country: UNITED STATES OF AMERICA (US)

Current information (Y/N): Y

RCS size: SMALL

Orbital parameters

Period: 98.828 minutes

Inclination: 98.4614 deg

SMA: 7080.775 km

Apoapsis: 713.761 km

Periapsis: 691.519 km

RAAN: 63.9637 deg

Eccentricy: 0.0015706

Argument of periapsis: 82.0238 deg

Mean anomaly: 278.2741 deg

Mean motion: 14.57073978 rev/day

Mean motion (dot): 0.00014126 rev/day2

B* drag term: 0.0031365 1/REarth

Two-line elements (TLE)

Creation date: May 7, 2025, 3:14 a.m.

Reference frame: TEME

Reference center: EARTH

Epoch: May 6, 2025, 6:40 a.m. UTC

TLE line 0: 0 NOAA 17 DEB

TLE line 1: 1 48729U 02032BN 25126.27814469 .00014126 00000-0 31365-2 0 9998

TLE line 2: 2 48729 98.4614 63.9637 0015706 82.0238 278.2741 14.57073978214728

Live tracking on map

Real-time ground track for satellite NOAA 17 DEB.

In-orbit conjunctions

A list of the most updated potential collisions computed for object NOAA 17 DEB.

Target Orbit TCA Probability of collision Miss distance Type
COSMOS 2251 DEB LEO 2024-11-14 23:44:19 0.0001096349 715.0 (m) DEBRIS
PEGASUS R/B LEO 2024-09-13 11:15:57 0.000278314 186.0 (m) ROCKET BODY

Associated space launch

NOAA M carried weather imagers and microwave and infrared sounders, as well as a SARSAT search-and-rescue package. It had an on-orbit mass of 1475 kg.

NOAA 17 DEB was lifted into orbit during the mission ‘Titan II SLV | NOAA 17’, on board a Titan II SLV space rocket.

The launch took place on June 24, 2002, 6:23 p.m. from Space Launch Complex 4W.

For more information about the launch, click the button.

Launch to space Titan II SLV | NOAA 17
Titan II SLV | NOAA 17

Agency: N/A

Status: Launch Successful

Launch date: June 24, 2002, 6:23 p.m. UTC

Rocket: Titan II SLV

Launch pad: Space Launch Complex 4W

Location: Vandenberg SFB, CA, USA

...

Latest news about this satellite

There are no fresh news available about this satellite. Check back as we update our databases every day.


Newsletter sign-up

Weekly statistics, charts and insights to help you stay on top of the space industry.